Location: Caltech
(34.1382°N, 118.1253°W)
Time: 03:18:35
(UTC-07:00)

Aureole 3 Rocket - Visible Passes

Search period start: 28 May 2017 00:00
Search period end: 07 June 2017 00:00
Orbit: 398 x 1745 km, 82.5° (Epoch: 27 May)

Date Brightness Start Highest point End Pass type
(mag) Time Alt. Az. Time Alt. Az. Time Alt. Az.
28 May 3.6 20:37:36 10° S 20:44:02 78° E 20:48:35 10° N visible
29 May 5.6 21:33:26 10° SW 21:38:13 25° W 21:41:58 10° NNW visible
30 May 3.7 20:39:16 10° S 20:45:19 74° W 20:49:38 10° N visible
31 May 6.2 21:36:12 10° WSW 21:39:27 16° W 21:42:13 10° NW visible
01 Jun 4.4 20:41:06 10° SSW 20:46:33 48° W 20:50:32 10° N visible
03 Jun 5.1 20:43:08 10° SW 20:47:44 31° W 20:51:16 10° NNW visible
05 Jun 5.9 20:45:29 10° SW 20:48:54 20° W 20:51:45 10° NW visible
